Location: Unspecified
(49.2170°N, 0.0000°E)
Time: 20:51:26
(UTC+00:00)

Transit 2A - Pass Details

Date: 25 June 2019
Orbit: 597 x 962 km, 66.7° (Epoch: 21 August)

Event Time Altitude Azimuth Distance (km) Brightness Sun altitude
Rises 05:41:41 0° 320° (NW) 3,556 9.2 14.2°
Reaches altitude 10° 05:45:03 10° 337° (NNW) 2,556 8.7 14.8°
Maximum altitude 05:49:17 20° 23° (NNE) 1,870 8.8 15.4°
Drops below altitude 10° 05:53:16 10° 70° (ENE) 2,377 11.4 16.0°
Sets 05:56:14 0° 87° (E) 3,230 10.8 16.5°
